[[[{"header":{"parameterUnit":"kt","parameterCategory":2,"dx":1,"dy":1,"la1":30.253999710083008,"la2":30.299108505249023,"lo1":-89.0895004272461,"lo2":-89.04439544677734,"nx":28,"ny":28,"refTime":"2022-09-19T21:00:00:Z","depth":"0","parameterNumber":2,"parameterNumberName":"U-component_of_CURRENTS"},"data":[0.4072,0.3962,0.3938,0.3726,0.3649,0.3525,0.3501,0.3483,0.3543,0.3548,0.3596,0.3655,0.3663,0.3406,0.3195,0.3254,0.3033,0.2914,0.3027,0.3383,0.3457,0.3527,0.3367,0.2819,0.2818,0.2165,0.2158,0.2153,0.4194,0.4151,0.4051,0.3929,0.3817,0.3839,0.3798,0.3758,0.3749,0.3864,0.3937,0.4064,0.4169,0.4378,0.4462,0.4308,0.4305,0.4149,0.3755,0.3821,0.4573,0.4444,0.4115,0.4115,0.4116,0.4116,0.4116,0.4117,0.4381,0.4305,0.4248,0.4133,0.4057,0.3995,0.3936,0.396,0.3967,0.4024,0.419,0.4328,0.4564,0.5106,0.525,0.5214,0.5344,0.5056,0.497,0.4834,0.4702,0.5512,0.5515,0.5518,0.5521,0.5523,0.5525,0,0.4522,0.4535,0.4437,0.4322,0.4253,0.4177,0.4144,0.4141,0.4234,0.4277,0.4387,0.4521,0.492,0.513,0.553,0.5725,0.5528,0.5832,0.5515,0.4962,0.4663,0.4685,0.5597,0.5565,0.5569,0.5572,0.5573,0.5575,0.4768,0.4671,0.4564,0.4494,0.4435,0.4362,0.4329,0.439,0.439,0.4524,0.4539,0.4769,0.4923,0.5358,0.5674,0.5996,0.5799,0.5905,0.5857,0.5475,0.5399,0.5218,0.52,0.5613,0.5608,0.5604,0.5601,0,0.4937,0.4856,0.4675,0.4586,0.4564,0.4494,0.4479,0.4463,0.4552,0.4586,0.4633,0.4843,0.5087,0.5367,0.5692,0.5835,0.5873,0.6127,0.5825,0.5846,0.5568,0.5457,0.5163,0.5128,0.6183,0.6183,0.6182,0,0.5106,0.4957,0.4859,0.4759,0.4645,0.4637,0.458,0.4609,0.4681,0.47,0.4874,0.4946,0.5251,0.5445,0.5657,0.5887,0.5931,0.6017,0.6078,0.586,0.5839,0.5621,0.5505,0.6113,0.6113,0.6112,0.6111,0,0.5324,0.5083,0.4914,0.4863,0.476,0.4728,0.4718,0.4771,0.4782,0.4893,0.4941,0.5119,0.5244,0.5432,0.5698,0.5696,0.5942,0.599,0.6055,0.6054,0.5931,0.5916,0.5541,0.611,0.611,0.611,0.6109,0,0.5439,0.5297,0.5053,0.4969,0.4922,0.4847,0.4854,0.4818,0.4909,0.497,0.5075,0.5216,0.5348,0.5438,0.5677,0.5638,0.5769,0.5882,0.5891,0.5927,0.6008,0.5876,0.5769,0.5437,0.6006,0.6005,0.6004,0,0.5734,0.5431,0.5372,0.5171,0.504,0.5097,0.5052,0.5059,0.511,0.5143,0.529,0.5361,0.5459,0.5532,0.5597,0.5792,0.5821,0.5765,0.6021,0.6027,0.601,0.5942,0.5697,0.5761,0.5989,0.5991,0.5992,0,0.5943,0.5707,0.567,0.5595,0.5482,0.5403,0.5338,0.5295,0.5301,0.5321,0.534,0.5427,0.5547,0.5599,0.571,0.5762,0.5802,0.5848,0.5857,0.5892,0.5961,0.5926,0.5933,0.5878,0.588,0.5881,0.598,0,0.6164,0.5993,0.588,0.5683,0.5622,0.5501,0.5486,0.5468,0.5514,0.5531,0.5583,0.5683,0.5764,0.5783,0.5845,0.588,0.5913,0.5987,0.6051,0.5982,0.6032,0.604,0.5989,0.5992,0.5995,0.5997,0,0,0.647,0.6202,0.6127,0.5962,0.5899,0.5929,0.579,0.5772,0.5728,0.5747,0.5792,0.5883,0.5962,0.5996,0.597,0.5996,0.6047,0.5994,0.6,0.5999,0.5999,0.6043,0.6048,0.6001,0.6002,0.6003,0.6004,0,0.6511,0.6386,0.6187,0.6116,0.5991,0.5965,0.5941,0.5858,0.587,0.5821,0.5936,0.5998,0.601,0.6077,0.6115,0.6027,0.6137,0.6037,0.5927,0.6018,0.6014,0.6011,0.6052,0.6055,0.601,0.601,0.601,0,0.6691,0.6552,0.6444,0.6233,0.6164,0.6045,0.6116,0.6008,0.5956,0.6086,0.6039,0.6122,0.6202,0.6185,0.6194,0.6219,0.6208,0.6194,0.6182,0.6184,0.6284,0.6278,0.6272,0.6352,0.6353,0.6354,0,0,0.6739,0.6552,0.642,0.6235,0.6182,0.6135,0.6081,0.6079,0.6059,0.6065,0.6113,0.6171,0.6218,0.6233,0.6272,0.6236,0.631,0.6231,0.6215,0.6201,0.6195,0.629,0.6284,0.6356,0.6356,0.6356,0,0,0.6782,0.6563,0.6548,0.6308,0.6232,0.6139,0.6063,0.6087,0.609,0.6116,0.621,0.623,0.6249,0.6287,0.6308,0.6295,0.6368,0.6364,0.6252,0.6233,0.6217,0.6204,0.6415,0,0,0,0,0,0.6755,0.6577,0.6563,0.651,0.6263,0.6128,0.6109,0.6098,0.6156,0.6114,0.6176,0.6256,0.6313,0.6333,0.6342,0.6317,0.6387,0.6381,0.6376,0.6227,0.6207,0.6189,0,0,0,0,0,0,0.6734,0.6665,0.657,0.6452,0.6397,0.6133,0.6209,0.6204,0.6161,0.6172,0.6235,0.6256,0.6312,0.6334,0.6341,0.6316,0.6413,0.6385,0.638,0.6376,0.622,0.6203,0.6189,0,0,0,0,0,0.6717,0.6662,0.6248,0.6458,0.6411,0.6351,0.6215,0.6211,0.6196,0.6237,0.6256,0.6193,0.6307,0.6322,0.6339,0.631,0.6409,0.6411,0.6382,0.6378,0.6375,0.6212,0,0,0,0,0,0,0.6704,0.6691,0.6241,0.623,0.6509,0.637,0.634,0.6218,0.6271,0.6278,0.6201,0.621,0.6302,0.6315,0.6325,0.6304,0.6405,0.6407,0.6409,0.6379,0.6376,0.6373,0,0,0,0,0,0,0.6721,0.668,0.6236,0.63,0.6296,0.6387,0.636,0.6367,0.6279,0.6238,0.6241,0.6206,0.6346,0.6309,0.6318,0.6325,0.6402,0.6405,0.6406,0.6407,0.6376,0.6374,0,0,0,0,0,0,0.6706,0.6671,0.6304,0.6301,0.6298,0.6177,0.6406,0.6195,0.6191,0.6242,0.6204,0.621,0.6343,0.6349,0.6312,0.6315,0.6323,0.6402,0.6404,0.6405,0.6406,0,0,0,0,0,0,0,0.6693,0.6901,0.6297,0.6301,0.6299,0.6121,0.6119,0.6117,0.6192,0.6197,0.6202,0.6207,0.6389,0.6392,0.6394,0.6306,0,0,0.6402,0.6403,0,0,0,0,0,0,0,0,0.6918,0.6905,0.6297,0.6294,0.6291,0.6121,0.6119,0.6118,0.6193,0.6197,0.6201,0.6205,0.639,0.6392,0.6394,0,0,0,0,0,0,0,0,0,0,0,0,0,0,0,0.6296,0.6294,0,0.6121,0.6119,0.6118,0.6194,0.6197,0.62,0.6204,0.639,0.6392,0.6394,0,0,0,0,0,0,0,0,0,0,0,0,0,0,0,0,0,0,0,0,0,0,0,0,0,0,0,0,0,0,0,0,0,0,0,0,0,0,0,0,0,0,0,0,0,0,0,0,0,0,0,0,0,0,0,0,0,0,0,0,0,0,0,0,0,0,0,0,0]}],[{"header":{"parameterUnit":"kt","parameterCategory":2,"dx":1,"dy":1,"la1":30.253999710083008,"la2":30.299108505249023,"lo1":-89.0895004272461,"lo2":-89.04439544677734,"nx":28,"ny":28,"refTime":"2022-09-19T21:00:00:Z","depth":"0","parameterNumber":3,"parameterNumberName":"V-component_of_CURRENTS"},"data":[-0.0821,-0.0696,-0.0612,-0.0389,-0.0274,-0.0076,0.0052,0.0259,0.0489,0.0889,0.1207,0.1424,0.1574,0.1287,0.1135,0.1078,0.094,0.0981,0.0817,0.0783,0.0756,0.0731,0.0766,0.0976,0.0976,0.092,0.0919,0.0918,-0.0866,-0.0746,-0.0615,-0.0444,-0.0313,-0.0247,-0.0038,0.0101,0.0332,0.0598,0.0802,0.1154,0.1242,0.1222,0.1151,0.1009,0.0932,0.0915,0.0867,0.0851,0.0845,0.0897,0.1138,0.1138,0.1138,0.1138,0.1138,0.1138,-0.0899,-0.081,-0.0665,-0.0529,-0.0401,-0.0247,-0.0127,0.0034,0.0216,0.0459,0.0539,0.0809,0.0925,0.0944,0.0838,0.0787,0.0664,0.0714,0.0639,0.0588,0.0638,0.0662,0.0806,0.0804,0.0802,0.08,0.0799,0,-0.0914,-0.0859,-0.0722,-0.0574,-0.0457,-0.0309,-0.016,-0.0081,0.0086,0.0208,0.0397,0.0515,0.0609,0.0705,0.0659,0.0588,0.0403,0.0436,0.0351,0.0476,0.0483,0.048,0.0392,0.0514,0.051,0.0507,0.0505,0.0504,-0.1001,-0.0888,-0.0681,-0.0597,-0.0492,-0.0355,-0.0256,-0.0125,-0.0029,0.015,0.0213,0.0316,0.0436,0.0433,0.0372,0.0305,0.0194,0.0349,0.0277,0.025,0.0177,0.0132,0.0137,0.0461,0.0466,0.0471,0.0474,0,-0.1069,-0.0899,-0.0712,-0.0503,-0.0449,-0.0361,-0.0192,-0.0109,-0.0026,0.009,0.0116,0.0212,0.0258,0.0212,0.0143,0.0073,0.0053,0.0017,0.0207,0.0224,0.0194,0.0136,0.0174,0.0191,0.0048,0.0051,0.0053,0,-0.1066,-0.0932,-0.0699,-0.0596,-0.0462,-0.0328,-0.0216,-0.014,-0.0042,0.0047,0.0066,0.0135,0.0065,0.0076,-0.001,-0.0019,-0.0059,-0.0101,-0.0106,0.0026,0.0046,-0.0007,-0.0064,-0.0223,-0.0223,-0.0223,-0.0223,0,-0.1138,-0.0872,-0.0691,-0.0612,-0.0382,-0.0326,-0.0243,-0.0145,-0.0076,-0.0006,0.0038,0.0036,0.0051,-0.0019,-0.0056,-0.0099,-0.0094,-0.017,-0.0131,-0.0124,-0.0001,0.0018,0.0039,-0.0224,-0.0224,-0.0224,-0.0224,0,-0.1097,-0.0931,-0.0707,-0.0506,-0.0449,-0.0365,-0.0244,-0.0158,-0.0083,-0.0052,-0.0034,-0.0029,-0.0028,-0.0085,-0.0124,-0.0119,-0.0171,-0.0205,-0.0206,-0.013,-0.0151,0.0019,0.0104,0.0054,-0.0216,-0.0216,-0.0216,0,-0.1208,-0.0937,-0.0809,-0.063,-0.0495,-0.0416,-0.0337,-0.025,-0.0199,-0.0134,-0.0151,-0.0107,-0.015,-0.0141,-0.0166,-0.0187,-0.0207,-0.0209,-0.0253,-0.0254,-0.0161,-0.0112,0.0053,0.0092,-0.0217,-0.0217,-0.0217,0,-0.1276,-0.0955,-0.0935,-0.0827,-0.0643,-0.055,-0.0465,-0.0342,-0.0296,-0.0242,-0.0184,-0.0172,-0.0187,-0.0181,-0.0194,-0.0213,-0.0209,-0.0237,-0.024,-0.0222,-0.0228,-0.0126,-0.0116,-0.0236,-0.0236,-0.0236,-0.0218,0,-0.1202,-0.1067,-0.1,-0.0791,-0.0702,-0.0594,-0.0481,-0.0427,-0.0396,-0.0337,-0.0295,-0.0286,-0.0256,-0.0262,-0.0259,-0.025,-0.025,-0.028,-0.0298,-0.0281,-0.0274,-0.0273,-0.0296,-0.0297,-0.0298,-0.0299,0,0,-0.1344,-0.1142,-0.1016,-0.0883,-0.0797,-0.0715,-0.0603,-0.0541,-0.0416,-0.039,-0.0397,-0.034,-0.034,-0.0303,-0.029,-0.0292,-0.0295,-0.0288,-0.0289,-0.0288,-0.0287,-0.028,-0.0278,-0.03,-0.03,-0.0301,-0.0301,0,-0.1283,-0.118,-0.1058,-0.095,-0.0786,-0.0708,-0.068,-0.0534,-0.0496,-0.0417,-0.0418,-0.0407,-0.0353,-0.0342,-0.0333,-0.0301,-0.0319,-0.0304,-0.0275,-0.0295,-0.0293,-0.0291,-0.0283,-0.0281,-0.0303,-0.0303,-0.0303,0,-0.1306,-0.1168,-0.1102,-0.09,-0.0808,-0.0695,-0.0667,-0.0564,-0.0496,-0.0495,-0.0426,-0.0421,-0.0409,-0.0369,-0.0359,-0.037,-0.0341,-0.0346,-0.0343,-0.0339,-0.0362,-0.0359,-0.0357,-0.0389,-0.0389,-0.0389,0,0,-0.1275,-0.1151,-0.0974,-0.0881,-0.0817,-0.0701,-0.064,-0.0582,-0.0507,-0.0484,-0.0454,-0.0441,-0.042,-0.0408,-0.0386,-0.0356,-0.0369,-0.0354,-0.035,-0.0347,-0.0341,-0.0363,-0.036,-0.039,-0.039,-0.039,0,0,-0.1272,-0.1048,-0.1004,-0.0878,-0.0758,-0.0611,-0.0566,-0.0525,-0.0473,-0.049,-0.0467,-0.046,-0.043,-0.0431,-0.0434,-0.0399,-0.042,-0.0418,-0.0384,-0.0379,-0.0375,-0.037,-0.0444,0,0,0,0,0,-0.1135,-0.1067,-0.1029,-0.0989,-0.0774,-0.0626,-0.0601,-0.0523,-0.0537,-0.0497,-0.0479,-0.0489,-0.0427,-0.0428,-0.0423,-0.0412,-0.0393,-0.0392,-0.0392,-0.0342,-0.0336,-0.0332,0,0,0,0,0,0,-0.1118,-0.1069,-0.103,-0.0879,-0.0829,-0.0629,-0.0626,-0.0604,-0.0539,-0.0535,-0.049,-0.0487,-0.047,-0.0432,-0.0426,-0.0417,-0.0445,-0.0393,-0.0392,-0.0392,-0.034,-0.0336,-0.0332,0,0,0,0,0,-0.1105,-0.1065,-0.0735,-0.0881,-0.0838,-0.0712,-0.0628,-0.0609,-0.0567,-0.0512,-0.0505,-0.0511,-0.0469,-0.0464,-0.0429,-0.0419,-0.0449,-0.0447,-0.0392,-0.0392,-0.0392,-0.0338,0,0,0,0,0,0,-0.1094,-0.1066,-0.0726,-0.071,-0.0896,-0.0722,-0.0691,-0.0615,-0.0551,-0.0538,-0.0534,-0.0532,-0.0468,-0.0465,-0.0461,-0.042,-0.0452,-0.045,-0.0449,-0.0392,-0.0392,-0.0391,0,0,0,0,0,0,-0.1086,-0.1053,-0.0718,-0.0742,-0.0729,-0.0732,-0.0704,-0.0679,-0.0555,-0.058,-0.0573,-0.0535,-0.0506,-0.0465,-0.0462,-0.0425,-0.0455,-0.0453,-0.0451,-0.045,-0.0392,-0.0392,0,0,0,0,0,0,-0.1071,-0.1043,-0.0746,-0.0736,-0.0725,-0.0555,-0.0716,-0.0525,-0.0494,-0.0588,-0.0497,-0.0498,-0.0509,-0.0503,-0.0463,-0.0427,-0.0425,-0.0454,-0.0453,-0.0452,-0.0452,0,0,0,0,0,0,0,-0.1059,-0.1258,-0.0806,-0.0732,-0.0722,-0.0568,-0.0565,-0.0562,-0.0494,-0.0495,-0.0496,-0.0497,-0.0466,-0.0464,-0.0461,-0.0428,0,0,-0.0455,-0.0454,0,0,0,0,0,0,0,0,-0.1269,-0.1261,-0.0806,-0.0802,-0.0798,-0.0567,-0.0565,-0.0562,-0.0495,-0.0495,-0.0496,-0.0497,-0.0465,-0.0463,-0.0462,0,0,0,0,0,0,0,0,0,0,0,0,0,0,0,-0.0805,-0.0802,0,-0.0567,-0.0565,-0.0563,-0.0495,-0.0495,-0.0496,-0.0497,-0.0465,-0.0463,-0.0462,0,0,0,0,0,0,0,0,0,0,0,0,0,0,0,0,0,0,0,0,0,0,0,0,0,0,0,0,0,0,0,0,0,0,0,0,0,0,0,0,0,0,0,0,0,0,0,0,0,0,0,0,0,0,0,0,0,0,0,0,0,0,0,0,0,0,0,0,0]}]],[[{"header":{"parameterUnit":"kt","parameterCategory":2,"dx":1,"dy":1,"la1":30.253999710083008,"la2":30.299108505249023,"lo1":-89.0895004272461,"lo2":-89.04439544677734,"nx":28,"ny":28,"refTime":"2022-09-19T21:00:00:Z","depth":"2","parameterNumber":2,"parameterNumberName":"U-component_of_CURRENTS"},"data":[0.3003,0.2892,0.2861,0.2661,0.2603,0.2475,0.2437,0.2262,0.2104,0.1714,0.1472,0.1327,0.1422,0.1064,0.1048,0.1018,0.1464,0.0987,0.1576,0.2012,0.2104,0.2368,0.2055,0,0,0,0,0,0.3107,0.3069,0.2968,0.283,0.2734,0.2764,0.2678,0.2571,0.2497,0.234,0.2263,0.1796,0.1635,0.1755,0.154,0.1421,0.1624,0.1434,0.1734,0.1829,0.1918,0.1661,0.0956,0.0956,0.0956,0.0956,0,0,0.3269,0.3204,0.3121,0.3021,0.2942,0.2863,0.279,0.2765,0.2733,0.2657,0.2772,0.2637,0.2558,0.2248,0.2304,0.2314,0.2495,0.2398,0.2451,0.2514,0.2266,0.2057,0.173,0.1734,0.1738,0.1741,0.1744,0,0.335,0.3354,0.3265,0.3154,0.3088,0.2997,0.2958,0.2935,0.2976,0.3007,0.3064,0.3108,0.3149,0.3012,0.2971,0.3014,0.3294,0.3092,0.3896,0.3177,0.2995,0.3001,0.3036,0.2887,0.2898,0.2906,0.2912,0.2916,0.3467,0.3412,0.3299,0.3232,0.3192,0.3134,0.3091,0.3109,0.3107,0.3206,0.3225,0.3394,0.3451,0.3639,0.3621,0.3726,0.4044,0.3372,0.3256,0.3806,0.3808,0.381,0.381,0.3034,0.3019,0.3007,0.2997,0,0.3513,0.3464,0.3344,0.3254,0.323,0.3191,0.314,0.3135,0.3213,0.3252,0.3293,0.3474,0.3667,0.3902,0.4236,0.4153,0.4277,0.4228,0.3855,0.3791,0.3898,0.388,0.3871,0.3855,0.3842,0.3831,0.3821,0,0.3527,0.3463,0.3381,0.3325,0.3249,0.3218,0.3199,0.3214,0.3281,0.3301,0.3453,0.3519,0.383,0.4008,0.4205,0.4225,0.4508,0.4183,0.4179,0.3939,0.3873,0.4614,0.46,0.4729,0.4728,0.4727,0.4726,0,0.3587,0.3461,0.3382,0.334,0.3236,0.3233,0.3212,0.3266,0.327,0.3401,0.3452,0.3655,0.3773,0.3993,0.4197,0.4206,0.4488,0.4526,0.4214,0.4183,0.3982,0.3919,0.4725,0.4724,0.4724,0.4724,0.4723,0,0.3596,0.3516,0.342,0.3309,0.3291,0.3258,0.3258,0.3244,0.3344,0.3404,0.3535,0.3645,0.3796,0.385,0.4135,0.4073,0.4208,0.431,0.432,0.3909,0.3873,0.3702,0.3626,0.4396,0.4393,0.4391,0.4388,0,0.3649,0.3537,0.3497,0.3402,0.3334,0.334,0.332,0.3338,0.3395,0.346,0.3583,0.3672,0.3739,0.3807,0.3911,0.4075,0.4154,0.4044,0.4308,0.4314,0.3871,0.3849,0.3541,0.3614,0.4354,0.4357,0.436,0,0.369,0.3577,0.358,0.3518,0.3468,0.344,0.3427,0.3423,0.3447,0.3516,0.3569,0.3673,0.3775,0.3813,0.3878,0.396,0.4092,0.4021,0.4029,0.4064,0.434,0.3862,0.3839,0.4165,0.4169,0.4173,0.4332,0,0.3647,0.3611,0.36,0.3521,0.3507,0.3485,0.3467,0.349,0.353,0.3553,0.3656,0.3737,0.3825,0.3845,0.3871,0.3972,0.3992,0.4027,0.4012,0.4055,0.4115,0.4136,0.3898,0.3898,0.3899,0.39,0,0,0.3699,0.3635,0.3632,0.3584,0.3562,0.3589,0.3545,0.3554,0.3577,0.3608,0.3639,0.3777,0.3823,0.3875,0.3887,0.391,0.3979,0.3882,0.4021,0.4033,0.4046,0.4105,0.4125,0.3901,0.3901,0.3901,0.3902,0,0.3656,0.3664,0.3632,0.3609,0.3598,0.3582,0.3589,0.3587,0.3609,0.3631,0.3691,0.3772,0.3818,0.3853,0.3876,0.3912,0.397,0.3933,0.3899,0.4022,0.4034,0.4045,0.4105,0.4122,0.3903,0.3903,0.3903,0,0.3646,0.3616,0.3611,0.3581,0.3585,0.3548,0.3585,0.3601,0.3581,0.3647,0.367,0.3746,0.3796,0.3832,0.3861,0.3843,0.395,0.3891,0.3889,0.3899,0.4028,0.4041,0.4052,0.3907,0.3906,0.3906,0,0,0.3616,0.3594,0.3564,0.3571,0.3568,0.3573,0.3585,0.3592,0.3616,0.3639,0.3675,0.3728,0.3778,0.3794,0.3847,0.3868,0.393,0.3887,0.3887,0.3886,0.3895,0.4023,0.4036,0.3904,0.3904,0.3904,0,0,0.3607,0.3556,0.3559,0.3556,0.3549,0.3537,0.3564,0.3576,0.3621,0.3648,0.368,0.3694,0.3764,0.378,0.3756,0.3826,0.3833,0.3839,0.3787,0.3788,0.3788,0.3785,0.376,0,0,0,0,0,0.3547,0.3551,0.3553,0.3551,0.3542,0.3527,0.353,0.3557,0.359,0.3601,0.3651,0.3666,0.3773,0.3751,0.3762,0.377,0.3884,0.3888,0.3891,0.3835,0.3836,0.3836,0,0,0,0,0,0,0.3546,0.354,0.3554,0.3536,0.3535,0.3527,0.3545,0.3552,0.3589,0.3596,0.3654,0.3665,0.3679,0.3747,0.3757,0.3764,0.3757,0.3886,0.3889,0.3892,0.3835,0.3836,0.3836,0,0,0,0,0,0.3545,0.354,0.3516,0.3537,0.3537,0.3566,0.3547,0.3553,0.3592,0.3619,0.3631,0.3617,0.3677,0.369,0.3753,0.3759,0.3751,0.3754,0.3888,0.389,0.3892,0.3836,0,0,0,0,0,0,0.3544,0.355,0.3517,0.3519,0.355,0.3569,0.357,0.3553,0.3615,0.3625,0.3579,0.3583,0.3675,0.3686,0.3695,0.3756,0.3745,0.3749,0.3751,0.389,0.3891,0.3893,0,0,0,0,0,0,0.3553,0.3551,0.3518,0.3532,0.3536,0.3571,0.3572,0.3603,0.3617,0.3573,0.3577,0.3581,0.3681,0.3682,0.369,0.3736,0.3741,0.3745,0.3747,0.3749,0.3891,0.3893,0,0,0,0,0,0,0.3553,0.3551,0.3532,0.3535,0.3539,0.3562,0.3602,0.3605,0.359,0.3571,0.3594,0.3596,0.3678,0.3686,0.3686,0.3728,0.3734,0.3742,0.3744,0.3745,0.3747,0,0,0,0,0,0,0,0.3553,0.3551,0.3506,0.3537,0.354,0.3537,0.3538,0.3538,0.3591,0.3592,0.3594,0.3595,0.3722,0.3726,0.373,0.3722,0,0,0.3741,0.3743,0,0,0,0,0,0,0,0,0.3554,0.3552,0.3506,0.3506,0.3507,0.3537,0.3538,0.3538,0.3591,0.3592,0.3594,0.3595,0.3723,0.3726,0.3729,0,0,0,0,0,0,0,0,0,0,0,0,0,0,0,0.3506,0.3506,0,0.3538,0.3538,0.3538,0.3591,0.3592,0.3593,0.3594,0.3724,0.3727,0.3729,0,0,0,0,0,0,0,0,0,0,0,0,0,0,0,0,0,0,0,0,0,0,0,0,0,0,0,0,0,0,0,0,0,0,0,0,0,0,0,0,0,0,0,0,0,0,0,0,0,0,0,0,0,0,0,0,0,0,0,0,0,0,0,0,0,0,0,0,0]}],[{"header":{"parameterUnit":"kt","parameterCategory":2,"dx":1,"dy":1,"la1":30.253999710083008,"la2":30.299108505249023,"lo1":-89.0895004272461,"lo2":-89.04439544677734,"nx":28,"ny":28,"refTime":"2022-09-19T21:00:00:Z","depth":"2","parameterNumber":3,"parameterNumberName":"V-component_of_CURRENTS"},"data":[-0.0573,-0.0457,-0.0386,-0.0162,-0.0083,0.0119,0.0266,0.0572,0.0823,0.1162,0.1261,0.1378,0.1088,0.0743,0.0528,0.039,0.043,0.0397,0.0725,0.0573,0.0583,0.0431,0.0464,0,0,0,0,0,-0.0637,-0.0576,-0.0458,-0.0291,-0.0142,-0.0088,0.0213,0.0419,0.0736,0.1035,0.1318,0.1154,0.1081,0.0911,0.0593,0.0483,0.0412,0.0487,0.0331,0.034,0.0348,0.0362,0.0259,0.0258,0.0258,0.0257,0,0,-0.0708,-0.0649,-0.0555,-0.0425,-0.0285,-0.0076,0.0081,0.0349,0.0631,0.0984,0.113,0.1348,0.1155,0.1038,0.0892,0.0728,0.0772,0.0653,0.0649,0.0648,0.0683,0.0694,0.0663,0.0664,0.0666,0.0667,0.0669,0,-0.0702,-0.0705,-0.0597,-0.0479,-0.0351,-0.0145,0.0077,0.0201,0.0503,0.0695,0.0996,0.1169,0.1216,0.1149,0.1043,0.0958,0.0794,0.0749,0.0894,0.0533,0.0533,0.052,0.0527,0.0469,0.047,0.0471,0.0471,0.0471,-0.0717,-0.0683,-0.0523,-0.0444,-0.0363,-0.0198,-0.0042,0.0192,0.0375,0.0675,0.0795,0.0937,0.1148,0.1182,0.1049,0.0946,0.094,0.0764,0.0697,0.0827,0.0816,0.0816,0.0816,0.048,0.0479,0.0478,0.0477,0,-0.0708,-0.0625,-0.05,-0.0297,-0.0231,-0.0138,0.0137,0.0287,0.0437,0.0648,0.0683,0.0916,0.0996,0.1006,0.0962,0.0916,0.0873,0.0837,0.0699,0.0679,0.08,0.0803,0.0803,0.0806,0.0809,0.0811,0.0813,0,-0.0626,-0.0548,-0.0392,-0.0335,-0.0187,0.0005,0.0172,0.0329,0.0529,0.07,0.0791,0.0921,0.0921,0.0962,0.0884,0.0869,0.0835,0.0788,0.0778,0.0645,0.0642,0.0691,0.0692,0.0692,0.0692,0.0693,0.0693,0,-0.0607,-0.0423,-0.0334,-0.0257,0.0012,0.0085,0.0232,0.0454,0.0594,0.0743,0.0814,0.09,0.0934,0.0871,0.0865,0.0833,0.0834,0.0785,0.0775,0.0779,0.0632,0.0626,0.0694,0.0694,0.0694,0.0695,0.0695,0,-0.0509,-0.0422,-0.0311,-0.0058,-0.0009,0.0093,0.0334,0.0479,0.0674,0.0741,0.0816,0.0871,0.0937,0.0867,0.0868,0.0878,0.0793,0.0773,0.0769,0.084,0.0826,0.0622,0.0623,0.071,0.0711,0.0711,0.0712,0,-0.048,-0.0378,-0.0272,-0.012,-0.0027,0.0126,0.0276,0.0435,0.0547,0.0673,0.0734,0.0833,0.0817,0.0834,0.0831,0.0862,0.0814,0.0843,0.0741,0.0738,0.0809,0.0851,0.0705,0.0634,0.0718,0.0718,0.0717,0,-0.0457,-0.0293,-0.0296,-0.0205,-0.0039,0.0051,0.019,0.0368,0.0449,0.0535,0.0641,0.0771,0.0757,0.0817,0.0858,0.0848,0.0823,0.0801,0.0799,0.0757,0.0753,0.0846,0.085,0.0801,0.0801,0.0801,0.0722,0,-0.0268,-0.0247,-0.0247,-0.0135,-0.0044,0.0011,0.0169,0.0244,0.0291,0.0391,0.0503,0.0594,0.0694,0.0719,0.077,0.0819,0.0783,0.0778,0.0742,0.077,0.0732,0.0728,0.0763,0.0762,0.0761,0.0761,0,0,-0.025,-0.0231,-0.0189,-0.0136,-0.0066,0.0009,0.0081,0.0174,0.0307,0.0363,0.0334,0.0527,0.0579,0.0728,0.0758,0.0784,0.0747,0.0749,0.0764,0.0765,0.0765,0.073,0.0727,0.076,0.0759,0.0759,0.0759,0,-0.0168,-0.0197,-0.0207,-0.0124,-0.0051,0.0047,0.004,0.0156,0.0203,0.0319,0.0371,0.0429,0.0554,0.0644,0.0699,0.0772,0.0718,0.0764,0.0777,0.0759,0.0761,0.0762,0.0728,0.0726,0.0757,0.0758,0.0758,0,-0.0094,-0.0069,-0.0088,-0.0025,0.0028,0.0119,0.0125,0.0155,0.0241,0.0282,0.0378,0.0429,0.0519,0.0621,0.0646,0.0627,0.0682,0.069,0.0694,0.0689,0.0669,0.0671,0.0673,0.0641,0.0641,0.0641,0,0,-0.0034,-0.0057,0.0039,-0.0002,0.0026,0.0115,0.0144,0.0182,0.0262,0.0283,0.0347,0.0404,0.0495,0.0519,0.0599,0.0669,0.0643,0.0676,0.0682,0.0686,0.0684,0.0666,0.0668,0.0639,0.0639,0.0639,0,0,0.0007,0.0061,0.0066,0.002,0.0108,0.0232,0.0225,0.0256,0.0325,0.029,0.0367,0.0384,0.0453,0.0474,0.0454,0.0567,0.0542,0.0549,0.0561,0.0568,0.0573,0.0557,0.0455,0,0,0,0,0,0.0114,0.006,0.0063,0.0063,0.0127,0.0232,0.0252,0.029,0.0249,0.027,0.0332,0.0318,0.0493,0.0478,0.0495,0.0508,0.0622,0.0625,0.0628,0.0661,0.0668,0.0674,0,0,0,0,0,0,0.0115,0.0114,0.0067,0.0174,0.0189,0.0232,0.0236,0.025,0.0249,0.0247,0.0316,0.0323,0.0387,0.0469,0.0485,0.0496,0.045,0.0624,0.0626,0.0628,0.0664,0.0669,0.0675,0,0,0,0,0,0.0116,0.0116,0.0174,0.0179,0.0192,0.0249,0.0233,0.0245,0.0242,0.0332,0.034,0.0254,0.0389,0.0402,0.0478,0.0488,0.0439,0.0445,0.0625,0.0627,0.0629,0.0666,0,0,0,0,0,0,0.0117,0.0171,0.0181,0.0191,0.0141,0.0249,0.0256,0.024,0.0328,0.0336,0.0279,0.0277,0.0391,0.0401,0.041,0.0484,0.0431,0.0437,0.044,0.0627,0.0628,0.063,0,0,0,0,0,0,0.0171,0.0178,0.0187,0.0136,0.0141,0.0248,0.0254,0.0323,0.0326,0.0271,0.0272,0.0276,0.0342,0.04,0.0408,0.052,0.0424,0.043,0.0434,0.0436,0.0628,0.0629,0,0,0,0,0,0,0.0177,0.0183,0.0135,0.0138,0.0143,0.0268,0.0312,0.0355,0.0325,0.0267,0.0316,0.0312,0.034,0.035,0.0406,0.0515,0.0519,0.0424,0.0428,0.0431,0.0433,0,0,0,0,0,0,0,0.0182,0.0101,0.0107,0.0141,0.0145,0.0281,0.0285,0.0289,0.0324,0.032,0.0317,0.0314,0.0392,0.0398,0.0404,0.0512,0,0,0.0424,0.0426,0,0,0,0,0,0,0,0,0.0102,0.0101,0.0108,0.0109,0.011,0.0282,0.0285,0.0288,0.0323,0.032,0.0318,0.0315,0.0394,0.0398,0.0404,0,0,0,0,0,0,0,0,0,0,0,0,0,0,0,0.0108,0.0109,0,0.0282,0.0285,0.0288,0.0323,0.0321,0.0318,0.0316,0.0395,0.0399,0.0403,0,0,0,0,0,0,0,0,0,0,0,0,0,0,0,0,0,0,0,0,0,0,0,0,0,0,0,0,0,0,0,0,0,0,0,0,0,0,0,0,0,0,0,0,0,0,0,0,0,0,0,0,0,0,0,0,0,0,0,0,0,0,0,0,0,0,0,0,0]}]],[[{"header":{"parameterUnit":"kt","parameterCategory":2,"dx":1,"dy":1,"la1":30.253999710083008,"la2":30.299108505249023,"lo1":-89.0895004272461,"lo2":-89.04439544677734,"nx":28,"ny":28,"refTime":"2022-09-19T21:00:00:Z","depth":"4","parameterNumber":2,"parameterNumberName":"U-component_of_CURRENTS"},"data":[-0.0955,-0.0952,-0.0877,-0.0757,-0.0645,-0.0597,-0.0545,-0.057,-0.0552,-0.0542,-0.0558,-0.0552,-0.0629,-0.0631,-0.0702,-0.0732,-0.1037,-0.0956,-0.0954,-0.1555,-0.1594,-0.1629,-0.1275,0,0,0,0,0,-0.0906,-0.0897,-0.0822,-0.0628,-0.0559,-0.0464,-0.044,-0.0418,-0.0434,-0.0502,-0.0445,-0.0594,-0.0641,-0.0737,-0.0712,-0.093,-0.1258,-0.0908,-0.1416,-0.1579,-0.1623,-0.1263,0,0,0,0,0,0,-0.0849,-0.0818,-0.0713,-0.0513,-0.0409,-0.0357,-0.0288,-0.03,-0.033,-0.0472,-0.0525,-0.0673,-0.0825,-0.0878,-0.1146,-0.1232,-0.1173,-0.1268,-0.1325,-0.137,-0.1033,-0.0491,-0.0644,0,0,0,0,0,-0.0736,-0.0682,-0.0588,-0.0402,-0.0255,-0.0179,-0.0085,-0.0139,-0.017,-0.0286,-0.0439,-0.0523,-0.0829,-0.1072,-0.1279,-0.1536,-0.1994,-0.1961,-0.1983,-0.1793,-0.1435,-0.1457,-0.1433,-0.1788,-0.1794,-0.1797,-0.18,0,-0.0672,-0.0593,-0.0367,-0.0276,-0.012,0.0077,0.0108,0.0185,0.0043,-0.0171,-0.0392,-0.06,-0.0764,-0.1282,-0.1599,-0.1909,-0.1895,-0.2075,-0.1872,-0.1499,-0.1521,-0.1483,-0.1445,-0.1835,-0.1832,-0.1829,-0.1826,0,-0.0664,-0.0529,-0.0372,-0.0137,-0.0035,0.0097,0.0235,0.0136,0.0115,-0.0169,-0.0192,-0.0494,-0.0764,-0.1174,-0.1784,-0.1825,-0.2169,-0.2155,-0.2173,-0.2227,-0.1538,-0.1485,-0.1892,-0.188,-0.1869,-0.186,-0.1852,0,-0.063,-0.0522,-0.0315,-0.0221,-0.0047,0.0114,0.0166,0.0195,0.0037,-0.0164,-0.0236,-0.0463,-0.088,-0.1275,-0.1436,-0.1658,-0.2062,-0.1689,-0.1749,-0.1929,-0.1877,-0.2168,-0.2137,-0.241,-0.2407,-0.2405,-0.2403,0,-0.0752,-0.052,-0.0355,-0.0256,-0.0065,0.0059,0.018,0.0102,0.005,-0.013,-0.0233,-0.0579,-0.0748,-0.1077,-0.127,-0.1155,-0.1934,-0.1935,-0.1674,-0.1635,-0.2142,-0.2115,-0.24,-0.24,-0.2399,-0.2398,-0.2397,0,-0.0754,-0.067,-0.0459,-0.0286,-0.0235,-0.0056,0.0011,0.0108,-0.0096,-0.0072,-0.0243,-0.0354,-0.0644,-0.0522,-0.1081,-0.0834,-0.0967,-0.1205,-0.1229,-0.1012,-0.0953,-0.1333,-0.1359,-0.135,-0.1342,-0.1334,-0.1327,0,-0.085,-0.0709,-0.0641,-0.0412,-0.0297,-0.0184,-0.0089,-0.0033,0.0024,-0.0039,-0.0251,-0.0303,-0.0153,-0.0139,-0.0375,-0.0698,-0.0868,-0.0582,-0.1292,-0.1312,-0.0919,-0.0881,-0.089,-0.1216,-0.123,-0.124,-0.1248,0,-0.0951,-0.0841,-0.0819,-0.0724,-0.0511,-0.045,-0.0269,-0.0218,-0.0235,0.0012,-0.0098,-0.0077,-0.0118,-0.0231,-0.0299,-0.0554,-0.0697,-0.0493,-0.0522,-0.0625,-0.1276,-0.0796,-0.0815,-0.0822,-0.0836,-0.0847,-0.117,0,-0.0941,-0.0885,-0.0862,-0.0744,-0.0686,-0.0545,-0.0449,-0.0289,-0.0085,-0.0076,-0.0072,-0.012,-0.0216,-0.0172,-0.0168,-0.0417,-0.0353,-0.051,-0.0706,-0.0666,-0.0779,-0.0838,-0.0242,-0.0249,-0.0254,-0.0259,0,0,-0.1,-0.0967,-0.1026,-0.0951,-0.0892,-0.0834,-0.0699,-0.0639,-0.042,-0.0424,-0.0225,-0.0282,-0.0307,-0.0557,-0.0399,-0.0391,-0.0491,-0.0355,-0.0595,-0.0629,-0.0664,-0.0776,-0.0826,-0.0268,-0.027,-0.0272,-0.0274,0,-0.1,-0.1034,-0.1029,-0.0986,-0.0948,-0.0919,-0.0843,-0.0712,-0.0628,-0.0388,-0.0467,-0.0473,-0.0306,-0.0513,-0.06,-0.0437,-0.0621,-0.0306,-0.0243,-0.0624,-0.065,-0.0677,-0.0789,-0.083,-0.0287,-0.0286,-0.0286,0,-0.1005,-0.1033,-0.1054,-0.1064,-0.1084,-0.1002,-0.1054,-0.097,-0.0849,-0.0927,-0.066,-0.0673,-0.0816,-0.0722,-0.0675,-0.0749,-0.0796,-0.0648,-0.0622,-0.0757,-0.1171,-0.1194,-0.1215,-0.0972,-0.0973,-0.0974,0,0,-0.0993,-0.1016,-0.1041,-0.1065,-0.1063,-0.1067,-0.1075,-0.101,-0.0963,-0.092,-0.0834,-0.0816,-0.0864,-0.0825,-0.0844,-0.0761,-0.1021,-0.0718,-0.0686,-0.0659,-0.0773,-0.1176,-0.1196,-0.0978,-0.0978,-0.0978,0,0,-0.0982,-0.103,-0.105,-0.1077,-0.1079,-0.1128,-0.1147,-0.1092,-0.1013,-0.0943,-0.1003,-0.0998,-0.0865,-0.0945,-0.0983,-0.0883,-0.1035,-0.1027,-0.0783,-0.0745,-0.0714,-0.0846,-0.1137,0,0,0,0,0,-0.1016,-0.103,-0.1049,-0.1064,-0.1135,-0.1135,-0.1147,-0.117,-0.111,-0.1065,-0.0999,-0.1083,-0.0986,-0.1021,-0.1027,-0.0931,-0.1028,-0.1019,-0.1011,-0.0682,-0.0641,-0.0606,0,0,0,0,0,0,-0.1022,-0.1032,-0.1051,-0.1102,-0.1123,-0.1136,-0.1168,-0.1174,-0.1115,-0.1104,-0.109,-0.1089,-0.116,-0.1026,-0.103,-0.0935,-0.1136,-0.1025,-0.1017,-0.101,-0.0668,-0.0634,-0.0605,0,0,0,0,0,-0.1027,-0.1036,-0.1124,-0.1105,-0.1122,-0.1174,-0.1163,-0.1168,-0.1072,-0.1187,-0.1179,-0.1073,-0.1163,-0.116,-0.1029,-0.093,-0.1134,-0.1135,-0.102,-0.1014,-0.1009,-0.0651,0,0,0,0,0,0,-0.1031,-0.1036,-0.1131,-0.1141,-0.1072,-0.1169,-0.1173,-0.1163,-0.1152,-0.1152,-0.1186,-0.118,-0.1165,-0.1163,-0.1162,-0.0921,-0.1133,-0.1134,-0.1134,-0.1015,-0.1011,-0.1007,0,0,0,0,0,0,-0.1034,-0.1043,-0.1135,-0.1092,-0.1097,-0.1164,-0.1168,-0.1188,-0.1147,-0.1147,-0.1146,-0.1183,-0.1141,-0.1165,-0.1164,-0.1199,-0.1132,-0.1133,-0.1133,-0.1134,-0.1012,-0.1008,0,0,0,0,0,0,-0.104,-0.1048,-0.1088,-0.1092,-0.1096,-0.1203,-0.1179,-0.1224,-0.1192,-0.1143,-0.1183,-0.1179,-0.1143,-0.1143,-0.1166,-0.1202,-0.12,-0.1132,-0.1132,-0.1133,-0.1133,0,0,0,0,0,0,0,-0.1045,-0.0963,-0.1085,-0.1092,-0.1095,-0.1241,-0.1242,-0.1243,-0.1191,-0.1188,-0.1184,-0.1181,-0.1127,-0.1128,-0.1129,-0.1205,0,0,-0.1132,-0.1132,0,0,0,0,0,0,0,0,-0.0962,-0.0963,-0.1085,-0.1088,-0.1091,-0.1241,-0.1242,-0.1243,-0.1191,-0.1188,-0.1185,-0.1182,-0.1127,-0.1128,-0.1129,0,0,0,0,0,0,0,0,0,0,0,0,0,0,0,-0.1086,-0.1088,0,-0.1241,-0.1242,-0.1243,-0.119,-0.1188,-0.1186,-0.1184,-0.1127,-0.1128,-0.1128,0,0,0,0,0,0,0,0,0,0,0,0,0,0,0,0,0,0,0,0,0,0,0,0,0,0,0,0,0,0,0,0,0,0,0,0,0,0,0,0,0,0,0,0,0,0,0,0,0,0,0,0,0,0,0,0,0,0,0,0,0,0,0,0,0,0,0,0,0]}],[{"header":{"parameterUnit":"kt","parameterCategory":2,"dx":1,"dy":1,"la1":30.253999710083008,"la2":30.299108505249023,"lo1":-89.0895004272461,"lo2":-89.04439544677734,"nx":28,"ny":28,"refTime":"2022-09-19T21:00:00:Z","depth":"4","parameterNumber":3,"parameterNumberName":"V-component_of_CURRENTS"},"data":[0.1007,0.1169,0.1193,0.119,0.1266,0.125,0.1082,0.0773,0.0427,0.0094,0.0084,0.002,0.0013,-0.0085,-0.002,-0.0023,0.0215,-0.0086,-0.0084,0.0301,0.0316,0.0329,0.0067,0,0,0,0,0,0.1061,0.113,0.1264,0.1428,0.1541,0.1624,0.126,0.1082,0.0633,0.0206,0.0143,-0.0133,-0.0141,-0.0226,-0.0102,-0.0212,0.0084,-0.0069,0.0263,0.031,0.0327,0.0066,0,0,0,0,0,0,0.1134,0.1216,0.1526,0.17,0.1837,0.1656,0.1597,0.1162,0.0898,0.0258,0.0048,-0.0136,-0.0255,-0.0195,-0.0068,0.0089,0.0065,0.0207,0.0228,0.0245,0.0022,0.0154,-0.0022,0,0,0,0,0,0.1183,0.1426,0.159,0.1885,0.2002,0.1942,0.178,0.1517,0.1093,0.0964,0.034,0.0227,-0.0089,-0.0141,0.0106,0.0219,0.0409,0.0458,0.0466,0.0312,0.0445,0.0452,0.0465,0.039,0.0393,0.0394,0.0395,0,0.1248,0.1412,0.1798,0.1912,0.209,0.2174,0.2098,0.1955,0.1578,0.1058,0.0676,0.0457,0.0163,0.0089,0.007,0.0302,0.0316,0.0502,0.0336,0.0472,0.0474,0.0483,0.049,0.0408,0.0407,0.0406,0.0405,0,0.1283,0.1528,0.1731,0.1964,0.202,0.2076,0.2009,0.1803,0.1643,0.1174,0.1115,0.0675,0.0449,0.0452,0.0377,0.0418,0.0409,0.0456,0.0749,0.0755,0.0513,0.0515,0.043,0.0425,0.0421,0.0418,0.0415,0,0.1356,0.15,0.1794,0.1932,0.1973,0.1974,0.188,0.1734,0.1467,0.1103,0.0996,0.0651,0.0575,0.046,0.0564,0.0498,0.0518,0.0443,0.0433,0.0542,0.0548,0.0465,0.0462,0.0466,0.0463,0.0461,0.0459,0,0.133,0.1551,0.1725,0.1789,0.1828,0.1858,0.1819,0.1546,0.1374,0.1113,0.0955,0.0703,0.059,0.059,0.0585,0.0588,0.0491,0.0443,0.0445,0.0449,0.045,0.0451,0.0457,0.0456,0.0456,0.0455,0.0454,0,0.134,0.1487,0.171,0.1695,0.1739,0.1788,0.1592,0.1514,0.1195,0.1117,0.092,0.0765,0.0565,0.0662,0.0509,0.0525,0.0632,0.0587,0.0593,0.0354,0.0367,0.0791,0.0784,0.0784,0.0784,0.0785,0.0785,0,0.1231,0.1451,0.1491,0.1631,0.1735,0.1718,0.1603,0.1503,0.1397,0.1208,0.1019,0.0828,0.0862,0.0803,0.071,0.0527,0.0583,0.0555,0.0538,0.0541,0.0462,0.0394,0.049,0.0788,0.0788,0.0787,0.0787,0,0.1093,0.1319,0.1387,0.1462,0.1593,0.161,0.1577,0.1486,0.139,0.1411,0.1227,0.0972,0.0941,0.0769,0.0621,0.0537,0.0607,0.0595,0.0585,0.0801,0.0588,0.0432,0.0418,0.0511,0.0507,0.0503,0.079,0,0.1107,0.1213,0.1295,0.1409,0.1444,0.1596,0.1579,0.1595,0.1663,0.1585,0.1386,0.1196,0.0953,0.0889,0.079,0.0583,0.0694,0.0572,0.0587,0.0532,0.0677,0.0676,0.0652,0.0649,0.0647,0.0645,0,0,0.0988,0.1073,0.1106,0.1223,0.129,0.1405,0.1516,0.1507,0.1546,0.147,0.158,0.12,0.1078,0.0711,0.069,0.0625,0.0675,0.0699,0.0548,0.0539,0.0529,0.0664,0.0665,0.0641,0.0641,0.064,0.0639,0,0.0963,0.0999,0.1069,0.1144,0.1331,0.1328,0.142,0.1532,0.1561,0.1545,0.1402,0.1266,0.1111,0.0857,0.0714,0.0621,0.0662,0.0618,0.0652,0.0536,0.0529,0.0522,0.0655,0.0658,0.0634,0.0634,0.0634,0,0.0916,0.0937,0.0951,0.1008,0.1125,0.1192,0.1248,0.1425,0.1431,0.1336,0.1347,0.1219,0.0975,0.0823,0.0776,0.0779,0.0669,0.0667,0.0672,0.0644,0.052,0.0512,0.0504,0.0614,0.0615,0.0617,0,0,0.0905,0.0918,0.0969,0.1002,0.1083,0.1192,0.1262,0.1342,0.1341,0.1374,0.1308,0.1196,0.1004,0.0966,0.0804,0.0719,0.0691,0.0678,0.0678,0.068,0.0655,0.0531,0.0522,0.0621,0.0621,0.0621,0,0,0.0892,0.0913,0.0968,0.0975,0.106,0.1095,0.1202,0.1272,0.1286,0.1364,0.122,0.1189,0.1094,0.1003,0.1075,0.0831,0.0807,0.0791,0.0945,0.0944,0.0944,0.0951,0.1006,0,0,0,0,0,0.0904,0.0898,0.0948,0.0959,0.1015,0.1067,0.1084,0.1172,0.1288,0.1345,0.1275,0.1258,0.0955,0.1016,0.099,0.0983,0.068,0.067,0.066,0.0831,0.0831,0.0831,0,0,0,0,0,0,0.0908,0.0912,0.0949,0.0971,0.0988,0.1064,0.1084,0.1106,0.1281,0.1299,0.1265,0.1248,0.1119,0.1026,0.1003,0.0998,0.1013,0.0676,0.0667,0.0659,0.0831,0.0831,0.0831,0,0,0,0,0,0.0912,0.0916,0.0977,0.0974,0.0988,0.1102,0.1086,0.1106,0.1275,0.1126,0.1126,0.1363,0.1117,0.1097,0.1012,0.101,0.1028,0.102,0.067,0.0663,0.0657,0.0831,0,0,0,0,0,0,0.0915,0.0929,0.0983,0.0993,0.1001,0.1105,0.1118,0.1104,0.1093,0.11,0.1194,0.1203,0.1115,0.11,0.1085,0.1018,0.1041,0.1032,0.1027,0.0665,0.0659,0.0655,0,0,0,0,0,0,0.0929,0.0935,0.0988,0.1016,0.103,0.1106,0.1118,0.1021,0.1085,0.1157,0.1169,0.1197,0.1089,0.1102,0.109,0.094,0.105,0.1042,0.1037,0.1033,0.066,0.0656,0,0,0,0,0,0,0.0935,0.094,0.1013,0.1024,0.1036,0.115,0.1016,0.1034,0.1228,0.115,0.1237,0.124,0.1085,0.1077,0.1093,0.0948,0.0942,0.105,0.1044,0.1041,0.1038,0,0,0,0,0,0,0,0.0939,0.0866,0.0933,0.103,0.1041,0.1089,0.1091,0.1093,0.1229,0.1232,0.1236,0.1239,0.1096,0.1087,0.1078,0.0955,0,0,0.1051,0.1047,0,0,0,0,0,0,0,0,0.0867,0.0866,0.0933,0.0936,0.0938,0.109,0.1091,0.1092,0.1229,0.1232,0.1235,0.1237,0.1093,0.1086,0.1079,0,0,0,0,0,0,0,0,0,0,0,0,0,0,0,0.0933,0.0936,0,0.109,0.1091,0.1092,0.123,0.1232,0.1234,0.1236,0.1091,0.1085,0.108,0,0,0,0,0,0,0,0,0,0,0,0,0,0,0,0,0,0,0,0,0,0,0,0,0,0,0,0,0,0,0,0,0,0,0,0,0,0,0,0,0,0,0,0,0,0,0,0,0,0,0,0,0,0,0,0,0,0,0,0,0,0,0,0,0,0,0,0,0]}]]]